Location: Makanda
(37.6176°N, 89.2090°W)
Time: 23:24:01
(UTC+00:00)

Cosmos 389 Rocket - Pass Details

Date: 23 September 2019
Orbit: 444 x 479 km, 81.1° (Epoch: 15 October)

Event Time Altitude Azimuth Distance (km) Brightness Sun altitude
Rises 01:13:34 0° 350° (N) 2,446 6.4 -16.4°
Reaches altitude 10° 01:15:38 10° 350° (N) 1,572 5.4 -16.8°
Maximum altitude 01:19:03 87° 263° (W) 452 2.3 -17.5°
Enters shadow 01:21:18 20° 174° (S) 1,082 4.1 -17.9°
